Theta_e
342 345 342 341 335 335 330 326 321 316 318 331 326 339 333 333 330 330 329 322 322 320 319 319 318 317 316 317 317 316 318 321 323 325 332 331 328 329
338 340 341 340 336 335 332 329 324 321 316 321 329 334 338 332 328 329 328 324 324 321 318 318 318 315 315 315 314 315 318 321 324 328 328 331 332 332
340 339 340 340 337 333 332 327 324 322 318 321 326 337 336 333 329 329 329 330 327 321 318 318 316 314 314 313 314 315 317 323 324 324 325 325 326 327
338 338 338 335 342 341 332 338 330 334 324 331 333 327 331 332 331 330 328 326 327 320 320 317 314 314 314 313 314 313 312 315 318 320 321 322 323 323
336 337 338 339 341 333 333 330 328 328 331 325 323 325 325 328 327 330 331 335 329 319 319 318 316 315 314 314 313 311 309 309 310 311 313 314 316 317
335 337 336 336 337 338 336 333 334 332 331 326 322 321 323 332 327 325 326 330 327 327 322 323 321 317 314 315 314 312 309 307 306 306 307 307 308 310
335 336 338 334 329 334 333 334 336 332 326 326 322 321 322 323 325 328 325 326 331 328 325 325 326 323 318 317 316 312 309 307 307 306 306 305 306 307
335 336 338 328 327 319 320 320 329 336 332 327 326 326 333 330 329 326 325 322 321 330 325 323 327 325 324 320 310 309 308 307 307 306 306 306 305 304
340 339 336 334 327 331 318 316 315 317 322 337 335 335 337 337 338 332 332 327 324 326 324 320 326 323 324 315 309 308 307 305 305 305 305 305 303 301
338 339 337 335 333 329 328 324 322 323 323 329 335 338 342 340 339 333 332 330 329 326 327 318 326 323 325 318 308 307 306 305 304 304 303 303 302 301
336 339 336 335 322 309 328 326 324 322 318 315 317 312 312 313 325 328 323 321 320 322 326 322 322 322 322 318 314 307 305 304 304 303 303 302 301 301
334 335 317 325 313 308 323 329 325 322 323 316 317 313 315 316 309 329 328 322 320 320 328 321 320 320 317 322 319 315 315 304 303 303 303 302 301 303
331 331 332 310 306 304 307 326 324 326 320 322 321 322 323 323 318 319 325 323 320 320 323 324 320 320 318 316 319 320 320 308 314 309 303 302 301 302
326 330 331 309 305 303 306 309 308 310 325 324 321 320 322 321 322 324 321 323 325 324 323 326 318 316 315 313 313 318 319 318 316 313 314 306 301 301
322 316 305 304 302 303 300 301 300 317 321 321 319 320 321 324 327 326 326 326 325 322 318 319 318 317 314 313 312 313 311 313 315 316 315 311 309 310
310 313 314 312 309 312 308 305 313 316 321 321 320 320 323 323 323 325 321 316 313 313 318 319 319 317 313 312 313 311 312 308 313 312 314 311 311 311
308 315 316 321 318 317 316 314 317 317 316 318 318 318 317 316 313 314 313 312 311 311 312 316 314 315 311 311 308 312 312 311 311 310 310 308 308 310
309 313 311 315 314 316 316 315 316 314 318 318 318 317 315 317 313 312 312 309 308 307 306 308 306 306 307 309 311 311 313 311 311 310 308 305 305 308
309 310 309 309 309 310 310 309 307 309 308 308 307 306 305 305 303 305 305 306 305 305 305 306 306 304 300 300 312 302 311 311 310 308 308 306 304 307
309 307 308 306 306 307 305 305 305 305 307 306 306 305 305 304 304 303 303 303 303 303 304 305 305 305 302 302 307 311 295 310 309 308 307 307 305 300
309 308 309 307 307 308 306 306 305 304 304 304 306 304 304 304 303 304 304 296 298 303 302 303 306 295 310 311 306 307 311 298 305 309 309 305 303 304
305 308 309 308 309 309 309 309 307 307 308 308 308 309 309 308 307 306 306 305 303 304 305 308 307 307 307 305 304 306 308 310 303 301 300 303 305 300
305 306 310 307 307 308 307 308 309 309 310 309 308 308 308 306 306 306 306 305 305 304 304 304 304 305 304 303 299 302 303 305 307 305 307 300 300 299
Wind_Speed
12 10 7 7 9 6 7 8 9 9 8 9 7 6 5 5 3 3 3 11 8 6 2 3 6 10 11 13 15 19 20 20 19 18 16 11 2 1
7 10 11 8 10 5 7 6 7 8 9 3 6 3 6 4 6 3 5 7 12 9 4 3 4 7 9 13 16 18 19 17 12 8 15 17 14 15
9 9 11 10 7 6 7 7 7 7 8 3 3 7 5 4 4 3 5 6 7 10 6 2 2 3 7 11 14 16 16 12 12 14 16 16 16 15
10 10 10 9 11 7 7 7 7 5 7 3 3 4 6 6 6 5 5 5 2 10 10 6 5 2 4 7 11 13 11 10 10 12 14 12 12 11
9 9 11 10 8 9 9 8 8 5 5 5 5 5 6 6 6 6 6 6 5 15 11 10 9 6 4 9 11 11 11 12 11 11 12 13 12 11
10 10 8 10 10 10 9 8 7 6 6 5 6 6 5 6 6 6 7 7 4 2 3 2 10 10 5 11 14 11 11 11 11 10 10 10 10 9
12 11 10 11 11 13 10 11 9 8 8 8 7 7 7 6 7 7 4 3 3 4 2 4 2 8 8 14 11 9 10 10 8 9 9 10 8 8
13 13 12 9 12 10 12 9 11 9 10 8 9 8 8 7 5 4 5 4 4 5 2 3 3 3 5 7 8 6 7 8 7 7 8 9 8 8
14 13 12 11 12 12 12 13 7 10 9 8 8 6 4 6 4 4 5 4 6 5 2 5 4 3 7 8 10 7 6 7 6 5 5 5 6 8
15 13 12 12 11 12 9 9 6 9 10 9 6 6 5 4 4 3 4 2 5 6 4 4 2 2 4 8 12 9 7 6 5 3 3 2 4 6
15 15 12 13 14 14 14 15 17 17 10 9 5 8 6 2 7 5 5 5 7 6 6 3 3 1 5 10 8 10 9 7 5 3 2 2 2 3
13 14 15 15 12 16 15 16 16 16 14 9 5 5 6 4 5 4 2 5 7 8 3 4 2 3 3 6 8 8 7 8 7 7 7 7 7 4
9 8 9 13 15 14 16 13 14 12 12 10 10 8 6 6 5 4 5 6 6 8 3 1 2 3 3 5 2 5 4 5 5 6 10 9 9 7
7 7 9 14 15 16 13 16 17 12 10 10 10 10 9 8 7 6 7 6 5 5 3 3 3 0 5 5 6 1 1 1 3 5 6 7 10 8
7 7 10 10 12 8 11 9 4 11 12 13 13 12 11 9 10 8 9 8 5 2 2 1 2 2 4 7 6 6 4 4 4 6 3 5 4 5
6 6 7 7 6 5 3 5 6 4 9 11 9 5 6 6 5 4 3 5 3 1 6 6 5 2 4 4 7 6 4 3 2 4 2 3 3 5
10 3 5 4 4 4 5 5 5 3 2 2 5 6 5 4 3 4 4 4 5 5 4 6 4 1 2 5 5 8 6 4 5 4 4 5 4 5
4 4 1 6 5 5 6 6 7 8 7 5 4 3 4 5 5 4 3 4 4 3 3 2 2 1 3 7 14 8 5 4 3 2 1 4 5 4
4 3 3 4 2 2 4 4 3 3 5 4 5 6 6 7 7 6 6 5 3 3 2 2 3 3 4 5 1 2 6 1 4 4 3 4 5 4
2 2 2 5 6 3 3 3 4 4 3 4 4 6 5 6 5 5 5 6 5 4 5 5 6 7 7 4 4 4 6 4 4 4 1 3 1 3
3 3 1 5 4 2 5 4 5 4 4 3 4 4 5 6 5 6 6 7 6 6 6 7 7 8 4 3 5 6 5 11 5 3 2 3 3 3
4 3 3 4 3 3 5 4 6 5 5 5 5 6 6 6 6 7 6 7 7 7 6 5 4 5 4 5 7 6 4 3 4 5 5 5 3 3
4 6 4 2 5 4 4 4 3 3 2 3 4 2 2 3 3 3 4 4 3 4 4 4 3 2 3 4 5 5 5 5 3 6 7 10 6 5
Wind_Direction
202 179 240 266 283 263 266 268 272 273 238 171 220 195 218 178 166 244 278 160 184 189 221 273 343 347 339 348 345 335 332 330 325 327 335 26 135 240
197 181 177 216 249 242 261 259 264 273 284 225 191 185 189 236 152 214 255 202 205 175 213 256 343 344 358 359 350 339 336 332 340 6 27 56 85 93
208 193 200 186 244 221 229 237 240 248 259 265 102 125 157 222 218 216 253 250 142 156 202 173 29 9 16 10 357 348 355 22 40 47 51 56 69 79
211 217 217 202 213 243 237 228 227 228 268 241 171 159 218 192 232 241 265 288 296 172 189 159 179 157 34 10 1 12 14 22 45 51 54 51 66 67
239 232 214 217 206 221 227 216 219 219 221 268 206 233 194 205 212 236 240 236 243 154 177 181 198 164 71 55 28 35 45 33 31 41 51 48 42 50
232 257 254 227 209 202 224 242 218 197 215 232 226 200 214 191 216 253 209 204 233 228 171 178 197 144 104 97 47 57 61 50 32 30 37 48 31 27
230 241 247 252 221 204 214 210 215 207 207 216 225 216 202 198 214 209 230 258 173 219 263 189 155 164 162 84 81 66 71 62 45 30 19 21 18 19
245 243 241 230 243 219 225 237 204 206 219 216 231 222 214 197 227 234 232 249 263 152 234 292 124 305 85 92 103 97 94 88 65 40 31 29 20 27
247 244 234 229 211 221 223 238 244 214 217 242 256 288 306 176 251 187 254 263 280 147 169 284 143 305 111 124 136 135 124 104 88 47 36 24 34 33
251 243 235 230 213 216 207 217 223 249 210 215 221 259 265 262 172 239 319 307 277 254 137 278 130 277 123 129 146 141 137 121 115 99 64 18 46 57
257 251 242 239 231 201 212 216 221 231 216 194 174 108 116 153 159 190 211 216 258 247 184 213 260 308 267 149 149 157 160 152 165 176 167 206 241 203
241 240 228 239 232 210 212 222 217 212 205 151 156 104 143 158 150 206 258 262 278 279 86 188 288 341 293 128 159 172 174 170 179 203 204 226 239 268
238 236 239 219 224 212 215 227 222 211 197 166 182 169 188 188 193 222 218 246 263 283 64 255 233 252 254 275 255 195 192 150 186 199 218 217 235 252
274 239 235 214 213 218 212 220 237 223 193 187 191 185 180 199 195 187 199 210 262 295 130 344 26 169 294 312 281 276 200 252 181 229 221 196 204 226
282 309 306 243 216 218 220 235 245 241 226 217 203 197 176 186 189 194 213 167 202 196 113 174 261 311 257 272 284 286 287 284 264 257 213 170 217 250
258 270 299 279 208 216 134 193 211 277 221 192 176 142 152 146 160 172 168 125 126 258 232 203 205 248 254 264 277 270 248 233 243 325 188 191 242 249
296 254 270 245 217 204 181 185 198 196 162 343 137 156 164 163 147 151 143 142 195 180 219 194 146 112 273 271 268 255 246 233 274 253 242 254 244 241
270 276 265 267 231 211 195 181 200 204 202 180 153 155 163 190 163 161 150 151 155 172 155 144 130 184 248 238 216 243 241 232 260 213 230 246 258 234
296 305 22 263 278 152 149 157 138 117 115 132 141 135 138 141 147 167 148 149 156 175 177 169 169 194 230 265 286 222 290 226 241 240 216 218 251 252
336 24 39 68 292 184 124 113 117 118 138 133 137 133 138 145 151 162 165 172 173 173 203 198 219 210 208 232 292 132 222 279 254 251 246 220 221 172
311 94 200 111 251 153 101 116 114 126 121 119 138 138 138 148 167 179 181 186 187 192 207 212 226 217 226 235 249 246 229 218 248 267 195 239 259 283
342 343 53 45 4 56 122 137 123 148 146 162 174 168 174 184 182 195 194 200 209 222 224 223 198 187 193 227 247 267 278 159 221 217 245 242 212 247
21 9 13 57 95 30 24 23 73 127 122 102 108 144 149 172 182 201 199 202 189 190 234 238 119 126 160 227 238 251 288 296 268 202 227 204 241 252